Content
SEND FEEDBACK

Daily
Averages
Monthly
Summary
United States of America

ORANGE, TEXAS


Home > North America > United States > Texas
Elevation: 1 foot     Latitude: 30 07N     Longitude: 093 47W

WEATHER
 
SELECT A DAY
Number of Records: 107,493;   Date Range: 8/25/05 - 7/11/14
 
SHARE

PRINT THIS DATA

[ ← Previous Day ]
WEATHER ALMANAC - FEBRUARY 5, 2013
[ Next Day → ]
[ °C ]   °F
Weather ElementAverageHighLow
Temperature64.6 °F73.4 °F (2:55 pm)57.2 °F (11:35 pm)
Dewpoint62.1 °F64.4 °F (10:15 am)57.2 °F (11:35 pm)
Humidity92.5 %100 % (12:35 am)69 % (2:55 pm)
Barometer29.97 in30.04 in (11:15 pm)29.91 in (2:15 am)
Wind Speed2.9 mph10.4 mph (5:35 pm)
Weather ElementAverage
Visibility8.7 mi
Wind DirectionENE (71.3 °)

Weather ElementTotal
Precipitation2.59 in
Cooling Degree Days0.3 (Base 65)
Growing Degree Days15.3 (Base 50)
Averaged from 67 records on February 5, 2013
WEATHER CONDITIONS BREAKOUT
WIND DIRECTION BREAKOUT
WEATHER BY HOUR - FEBRUARY 5, 2013
[ °C ]   °F
Local TimeTemperatureDewpointHumidityBarometerVisibilityWind DirectionWind SpeedGust SpeedPrecipitationEventsConditions
12:35 AM62.6 °F62.6 °F100 %29.93 in2.0 miNW (320°)4.6 mph0.64 inRainHeavy Rain
12:55 AM62.6 °F62.6 °F100 %29.92 in2.5 miENE (60°)4.6 mph0.92 inRainRain
1:15 AM62.6 °F62.6 °F100 %29.92 in4.0 miNE (40°)4.6 mph0.09 inRainRain
1:35 AM60.8 °F60.8 °F100 %29.92 in3.0 miNE (40°)3.5 mph0.21 inRainHeavy Rain
1:55 AM60.8 °F60.8 °F100 %29.92 in5.0 miENE (60°)4.6 mph0.42 inRainRain
2:15 AM60.8 °F60.8 °F100 %29.91 in7.0 miENE (70°)4.6 mph0.01 inLight Drizzle
2:35 AM60.8 °F60.8 °F100 %29.92 in1.8 miNE (50°)3.5 mph0.12 inRainHeavy Rain
2:55 AM60.8 °F60.8 °F100 %29.92 in10.0 miCalm0.18 inOvercast
3:15 AM60.8 °F60.8 °F100 %29.92 in10.0 miCalmOvercast
3:35 AM60.8 °F60.8 °F100 %29.92 in7.0 miCalmOvercast
3:55 AM62.6 °F62.6 °F100 %29.92 in10.0 miCalmOvercast
4:15 AM60.8 °F60.8 °F100 %29.92 in10.0 miEast (100°)5.8 mphOvercast
4:35 AM60.8 °F60.8 °F100 %29.92 in10.0 miESE (110°)3.5 mphOvercast
4:55 AM60.8 °F60.8 °F100 %29.92 in10.0 miEast (100°)4.6 mphOvercast
5:15 AM60.8 °F60.8 °F100 %29.92 in7.0 miENE (70°)3.5 mphOvercast
5:35 AM60.8 °F60.8 °F100 %29.93 in10.0 miCalmOvercast
5:55 AM60.8 °F60.8 °F100 %29.94 in10.0 miCalmOvercast
6:15 AM60.8 °F60.8 °F100 %29.95 in10.0 miCalmOvercast
6:35 AM60.8 °F60.8 °F100 %29.96 in10.0 miSE (130°)3.5 mphOvercast
6:55 AM60.8 °F60.8 °F100 %29.96 in10.0 miCalmOvercast
7:15 AM60.8 °F60.8 °F100 %29.96 in10.0 miCalmOvercast
7:35 AM60.8 °F60.8 °F100 %29.97 in10.0 miCalmOvercast
7:55 AM60.8 °F60.8 °F100 %29.98 in10.0 miCalmOvercast
8:15 AM60.8 °F60.8 °F100 %29.98 in10.0 miCalmOvercast
9:15 AM62.6 °F62.6 °F100 %30.00 in10.0 miSE (140°)3.5 mphOvercast
9:35 AM64.4 °F62.6 °F94 %30.01 in10.0 miSSE (160°)5.8 mphMostly Cloudy
10:15 AM64.4 °F64.4 °F100 %30.02 in10.0 miSSE (150°)4.6 mphOvercast
10:35 AM66.2 °F64.4 °F94 %30.02 in10.0 miSE (140°)3.5 mphOvercast
10:55 AM68.0 °F64.4 °F88 %30.02 in10.0 miSSE (160°)4.6 mphOvercast
11:15 AM68.0 °F64.4 °F88 %30.02 in10.0 miSouth (180°)3.5 mphOvercast
11:35 AM69.8 °F64.4 °F83 %30.01 in10.0 miCalmMostly Cloudy
11:55 AM71.6 °F64.4 °F78 %30.00 in10.0 miNorth (360°)3.5 mphOvercast
12:15 PM69.8 °F64.4 °F83 %30.00 in10.0 miCalmOvercast
12:35 PM69.8 °F64.4 °F83 %30.00 in10.0 miCalmMostly Cloudy
12:55 PM69.8 °F62.6 °F78 %29.99 in10.0 miCalmScattered Clouds
1:15 PM71.6 °F64.4 °F78 %29.98 in10.0 miCalmScattered Clouds
1:35 PM69.8 °F62.6 °F78 %29.98 in10.0 miCalmScattered Clouds
1:55 PM71.6 °F64.4 °F78 %29.97 in10.0 miSSW (200°)3.5 mphRainRain
2:15 PM71.6 °F64.4 °F78 %29.96 in10.0 miCalmMostly Cloudy
2:35 PM71.6 °F62.6 °F73 %29.96 in10.0 miCalmClear
2:55 PM73.4 °F62.6 °F69 %29.95 in10.0 miNE (50°)3.5 mphClear
3:15 PM73.4 °F62.6 °F69 %29.95 in10.0 miCalmClear
3:35 PM73.4 °F62.6 °F69 %29.94 in10.0 miNorth (10°)3.5 mphClear
3:55 PM73.4 °F62.6 °F69 %29.95 in10.0 miESE (110°)4.6 mphScattered Clouds
4:15 PM73.4 °F64.4 °F73 %29.95 in10.0 miSE (140°)8.1 mphClear
4:35 PM71.6 °F64.4 °F78 %29.94 in10.0 miSSE (150°)5.8 mphClear
4:55 PM71.6 °F64.4 °F78 %29.95 in10.0 miESE (120°)8.1 mphMostly Cloudy
5:15 PM71.6 °F64.4 °F78 %29.95 in10.0 miESE (110°)5.8 mphMostly Cloudy
5:35 PM69.8 °F64.4 °F83 %29.96 in10.0 miEast (90°)10.4 mphOvercast
5:55 PM68.0 °F64.4 °F88 %29.95 in10.0 miEast (80°)8.1 mphScattered Clouds
6:35 PM66.2 °F64.4 °F94 %29.97 in10.0 miESE (110°)6.9 mphClear
6:55 PM64.4 °F64.4 °F100 %29.97 in10.0 miSE (130°)6.9 mphScattered Clouds
7:15 PM64.4 °F62.6 °F94 %29.98 in10.0 miESE (120°)8.1 mphScattered Clouds
7:35 PM62.6 °F62.6 °F100 %29.99 in10.0 miSE (130°)5.8 mphScattered Clouds
7:55 PM62.6 °F62.6 °F100 %30.00 in10.0 miESE (120°)5.8 mphScattered Clouds
8:15 PM62.6 °F62.6 °F100 %30.01 in10.0 miESE (120°)3.5 mphClear
8:35 PM62.6 °F62.6 °F100 %30.01 in10.0 miESE (120°)3.5 mphClear
8:55 PM60.8 °F60.8 °F100 %30.02 in10.0 miESE (110°)4.6 mphClear
9:15 PM60.8 °F60.8 °F100 %30.03 in10.0 miEast (100°)3.5 mphClear
9:35 PM60.8 °F60.8 °F100 %30.02 in10.0 miESE (110°)3.5 mphClear
9:55 PM60.8 °F60.8 °F100 %30.03 in10.0 miESE (110°)3.5 mphClear
10:15 PM60.8 °F60.8 °F100 %30.03 in7.0 miCalmClear
10:35 PM59.0 °F59.0 °F100 %30.03 in7.0 miCalmClear
10:55 PM59.0 °F59.0 °F100 %30.03 in3.0 miCalmClear
11:15 PM59.0 °F59.0 °F100 %30.04 in7.0 miCalmScattered Clouds
11:35 PM57.2 °F57.2 °F100 %30.04 in1.0 miCalmMostly Cloudy
11:55 PM57.2 °F57.2 °F100 %30.03 in0.5 miCalmFogFog
Hourly data recorded from KORG, located miles away from Orange, Texas







STORIES FROM OUR PARTNERS